Location: Comstock Ranch
(38.0499°N, 120.2627°W)
Time: 21:06:34
(UTC+00:00)

Cosmos 540 Rocket - Pass Details

Date: 08 September 2024
Orbit: 737 x 749 km, 74.1° (Epoch: 12 October)

Event Time Altitude Azimuth Distance (km) Brightness Sun altitude
Rises 12:13:44 0° 345° (NNW) 3,181 6.8 -16.8°
Reaches altitude 10° 12:16:08 10° 350° (N) 2,256 6.1 -16.3°
Maximum altitude 12:21:10 58° 69° (ENE) 861 4.1 -15.4°
Drops below altitude 10° 12:26:11 10° 149° (SSE) 2,250 6.1 -14.5°
Sets 12:28:34 0° 153° (SSE) 3,171 6.8 -14.0°
